Location: Sternwarte auf dem Internationalen Platz Vogelsang IP
(50.5721°N, 6.4398°E)
Time: 10:19:18
(UTC+01:00)

A-11 Canister half - Pass Details

Date: 18 December 2025
Orbit: 1511 x 1688 km, 47.2° (Epoch: 15 January)

Event Time Altitude Azimuth Distance (km) Brightness Sun altitude
Rises 21:37:29 0° 287° (WNW) 4,764 12.3 -46.9°
Reaches altitude 10° 21:41:29 10° 273° (W) 3,807 11.5 -47.5°
Enters shadow 21:48:03 21° 230° (SW) 3,048 10.6 -48.4°
Maximum altitude 21:48:08 21° 229° (SW) 3,048 - -48.5°
Drops below altitude 10° 21:54:56 10° 185° (S) 3,891 - -49.4°
Sets 21:59:06 0° 171° (S) 4,898 - -50.0°
